Weather History for Pampa, TX

Change the Weather History Date:

Sunday, September 8, 2013

  Actual Average Record
Temperature  
Mean Temperature 80 °F -  
Max Temperature 94 °F 87 °F 97 °F (1971)
Min Temperature 67 °F 61 °F 48 °F (1986)
Cooling Degree Days 15    
Growing Degree Days 30 (Base 50)    
Moisture  
Dew Point 52 °F    
Average Humidity 40    
Maximum Humidity 65    
Minimum Humidity 22    
Precipitation  
Precipitation 0.00 in - - ()
Sea Level Pressure  
Sea Level Pressure 30.04 in    
Wind  
Wind Speed 10 mph (SSW)    
Max Wind Speed 18 mph    
Max Gust Speed 23 mph    
Visibility 10 miles    
Events      
Averages and records for this station are not official NWS values.
T = Trace of Precipitation, MM = Missing Value Source: NWS Daily Summary

Daily Weather History Graph

Daily Weather History Graph

Search for Another Location

Airport:

Trip Planner

Search our weather history database for the weather conditions in past years. The results will help you decide how hot, cold, wet, or windy it might be!

Date:

Astronomy

Sep. 08, 2013 Rise Set
Actual Time 7:21 AM CDT 8:00 PM CDT
Civil Twilight 6:55 AM CDT 8:26 PM CDT
Nautical Twilight 6:25 AM CDT 8:56 PM CDT
Astronomical Twilight 5:54 AM CDT 9:27 PM CDT
Moon 10:32 AM CDT (9/8) 9:47 PM CDT (9/8)
Length of Visible Light 13h 30m
Length of Day
12h 39m
Waxing Crescent, 11% of the Moon is Illuminated
Sep 8
Waxing Crescent
Sep 12
First Quarter
Sep 19
Full
Sep 26
Last Quarter
Oct 4
New

Hourly Weather History & Observations

Time (CDT) Temp. Heat Index Dew Point Humidity Pressure Visibility Wind Dir Wind Speed Gust Speed Precip Events Conditions
12:15 AM 74.3 °F - 53.1 °F 47% 30.07 in 10.0 mi SSW 9.2 mph - N/A   Clear
12:35 AM 73.4 °F - 53.6 °F 50% 30.07 in 10.0 mi SSW 8.1 mph - N/A   Clear
12:55 AM 73.2 °F - 53.6 °F 50% 30.07 in 10.0 mi SSW 9.2 mph - N/A   Clear
1:15 AM 73.8 °F - 53.6 °F 49% 30.07 in 10.0 mi SW 9.2 mph - N/A   Clear
1:35 AM 73.8 °F - 53.8 °F 50% 30.08 in 10.0 mi SSW 8.1 mph - N/A   Clear
1:55 AM 70.7 °F - 53.6 °F 55% 30.08 in 10.0 mi South 9.2 mph - N/A   Clear
2:15 AM 70.2 °F - 53.6 °F 56% 30.07 in 7.0 mi South 9.2 mph - N/A   Clear
2:35 AM 70.2 °F - 53.6 °F 56% 30.07 in 10.0 mi South 8.1 mph - N/A   Clear
2:55 AM 69.3 °F - 53.6 °F 57% 30.07 in 10.0 mi SSW 9.2 mph - N/A   Clear
3:15 AM 69.6 °F - 53.6 °F 57% 30.07 in 10.0 mi SSW 9.2 mph - N/A   Clear
3:35 AM 68.5 °F - 53.6 °F 59% 30.07 in 10.0 mi South 8.1 mph - N/A   Clear
3:55 AM 68.4 °F - 54.0 °F 60% 30.07 in 10.0 mi SSW 6.9 mph - N/A   Clear
4:15 AM 68.9 °F - 54.5 °F 60% 30.07 in 10.0 mi SSW 5.8 mph - N/A   Clear
4:35 AM 67.8 °F - 54.3 °F 62% 30.07 in 10.0 mi SSW 4.6 mph - N/A   Clear
4:55 AM 67.1 °F - 54.5 °F 64% 30.07 in 10.0 mi SW 5.8 mph - N/A   Clear
5:15 AM 68.0 °F - 54.9 °F 63% 30.06 in 10.0 mi SW 5.8 mph - N/A   Clear
5:35 AM 67.5 °F - 54.7 °F 64% 30.06 in 10.0 mi SSW 6.9 mph - N/A   Clear
5:55 AM 67.6 °F - 54.7 °F 63% 30.06 in 10.0 mi SSW 8.1 mph - N/A   Clear
6:15 AM 69.1 °F - 55.0 °F 61% 30.06 in 10.0 mi SW 8.1 mph - N/A   Clear
6:35 AM 69.6 °F - 55.2 °F 60% 30.06 in 10.0 mi SW 9.2 mph - N/A   Clear
6:55 AM 69.1 °F - 55.0 °F 61% 30.07 in 10.0 mi WSW 6.9 mph - N/A   Clear
7:15 AM 67.1 °F - 54.9 °F 65% 30.07 in 10.0 mi WSW 5.8 mph - N/A   Clear
7:35 AM 67.5 °F - 55.4 °F 65% 30.07 in 10.0 mi WSW 6.9 mph - N/A   Clear
7:55 AM 68.7 °F - 55.4 °F 62% 30.08 in 10.0 mi WSW 6.9 mph - N/A   Clear
8:15 AM 69.6 °F - 55.6 °F 61% 30.08 in 10.0 mi SW 6.9 mph - N/A   Clear
8:35 AM 72.9 °F - 55.8 °F 55% 30.07 in 10.0 mi WSW 6.9 mph - N/A   Clear
8:55 AM 75.2 °F - 55.6 °F 50% 30.07 in 10.0 mi West 6.9 mph - N/A   Clear
9:15 AM 77.9 °F - 55.6 °F 46% 30.07 in 10.0 mi West 10.4 mph - N/A   Clear
9:35 AM 80.2 °F 80.3 °F 55.4 °F 42% 30.07 in 10.0 mi WSW 9.2 mph - N/A   Clear
9:55 AM 82.8 °F 81.9 °F 54.5 °F 38% 30.07 in 10.0 mi West 12.7 mph - N/A   Clear
10:15 AM 83.8 °F 82.6 °F 54.0 °F 36% 30.07 in 10.0 mi WSW 11.5 mph - N/A   Clear
10:55 AM 86.4 °F - 52.9 °F 32% 30.07 in 10.0 mi West 10.4 mph - N/A   Clear
11:15 AM 87.4 °F - 52.7 °F 30% 30.07 in 10.0 mi WSW 5.8 mph - N/A   Clear
11:35 AM 88.0 °F - 52.3 °F 29% 30.07 in 10.0 mi SSW 11.5 mph - N/A   Clear
11:55 AM 88.5 °F - 52.3 °F 29% 30.07 in 10.0 mi SSW 9.2 mph 17.3 mph N/A   Clear
12:15 PM 90.1 °F - 52.3 °F 27% 30.06 in 10.0 mi South 11.5 mph 20.7 mph N/A   Clear
12:35 PM 90.5 °F - 52.7 °F 27% 30.06 in 10.0 mi South 17.3 mph 20.7 mph N/A   Clear
12:55 PM 87.8 °F - 52.3 °F 30% 30.05 in 10.0 mi South 12.7 mph 16.1 mph N/A   Scattered Clouds
1:15 PM 90.9 °F - 52.3 °F 27% 30.04 in 10.0 mi South 11.5 mph 19.6 mph N/A   Scattered Clouds
1:35 PM 91.9 °F - 52.9 °F 26% 30.04 in 10.0 mi SSW 15.0 mph - N/A   Clear
1:55 PM 91.2 °F - 52.3 °F 27% 30.03 in 10.0 mi SSE 9.2 mph 19.6 mph N/A   Scattered Clouds
2:15 PM 92.3 °F - 52.0 °F 25% 30.03 in 10.0 mi SE 13.8 mph 19.6 mph N/A   Clear
2:35 PM 92.8 °F - 51.3 °F 24% 30.03 in 10.0 mi South 15.0 mph 19.6 mph N/A   Scattered Clouds
2:55 PM 92.8 °F - 50.5 °F 24% 30.02 in 10.0 mi South 12.7 mph 20.7 mph N/A   Scattered Clouds
3:15 PM 93.0 °F - 50.4 °F 23% 30.01 in 10.0 mi SSE 10.4 mph 18.4 mph N/A   Scattered Clouds
3:35 PM 93.7 °F - 49.1 °F 22% 30.01 in 10.0 mi South 13.8 mph 20.7 mph N/A   Scattered Clouds
3:55 PM 92.5 °F - 50.0 °F 23% 30.00 in 10.0 mi South 11.5 mph 19.6 mph N/A   Scattered Clouds
4:35 PM 92.3 °F - 49.8 °F 23% 29.99 in 10.0 mi South 11.5 mph 19.6 mph N/A   Scattered Clouds
4:55 PM 92.7 °F - 48.6 °F 22% 29.98 in 10.0 mi South 17.3 mph 23.0 mph N/A   Scattered Clouds
5:15 PM 92.1 °F - 48.7 °F 23% 29.97 in 10.0 mi South 16.1 mph 20.7 mph N/A   Scattered Clouds
5:35 PM 92.3 °F - 48.7 °F 22% 29.97 in 10.0 mi South 13.8 mph 21.9 mph N/A   Clear
5:55 PM 91.4 °F - 48.6 °F 23% 29.97 in 10.0 mi SSE 15.0 mph 19.6 mph N/A   Clear
6:15 PM 90.5 °F - 47.1 °F 22% 29.97 in 10.0 mi South 13.8 mph 18.4 mph N/A   Clear
6:35 PM 89.8 °F - 47.8 °F 23% 29.97 in 10.0 mi South 15.0 mph 18.4 mph N/A   Clear
6:55 PM 88.5 °F - 48.4 °F 25% 29.96 in 10.0 mi South 18.4 mph 23.0 mph N/A   Clear
7:15 PM 87.4 °F - 48.4 °F 26% 29.96 in 10.0 mi SSE 12.7 mph 19.6 mph N/A   Clear
7:35 PM 86.0 °F - 47.8 °F 27% 29.96 in 10.0 mi SSE 12.7 mph 19.6 mph N/A   Clear
7:55 PM 84.6 °F - 48.0 °F 28% 29.97 in 10.0 mi South 15.0 mph - N/A   Clear
8:15 PM 83.3 °F - 48.2 °F 29% 29.97 in 10.0 mi SSE 12.7 mph - N/A   Clear
8:35 PM 81.7 °F - 48.0 °F 31% 29.98 in 10.0 mi SSE 9.2 mph - N/A   Clear
8:55 PM 80.6 °F - 48.7 °F 33% 29.99 in 10.0 mi SSE 10.4 mph - N/A   Clear
9:15 PM 79.9 °F - 48.4 °F 33% 29.99 in 10.0 mi SSE 11.5 mph - N/A   Clear
9:35 PM 79.2 °F - 48.2 °F 34% 30.00 in 10.0 mi SSE 11.5 mph 18.4 mph N/A   Clear
9:55 PM 78.4 °F - 47.8 °F 34% 30.00 in 10.0 mi SSE 12.7 mph - N/A   Clear
10:15 PM 78.1 °F - 48.2 °F 35% 30.01 in 10.0 mi SSE 15.0 mph 19.6 mph N/A   Clear
10:35 PM 78.1 °F - 48.2 °F 35% 30.01 in 10.0 mi SSE 13.8 mph - N/A   Clear
10:55 PM 77.9 °F - 48.4 °F 35% 30.02 in 10.0 mi SSE 13.8 mph 21.9 mph N/A   Clear
11:15 PM 77.0 °F - 48.6 °F 37% 30.02 in 10.0 mi SSE 15.0 mph - N/A   Clear
11:35 PM 76.3 °F - 48.7 °F 38% 30.02 in 10.0 mi SSE 13.8 mph - N/A   Clear
11:55 PM 76.1 °F - 49.3 °F 39% 30.02 in 10.0 mi SSE 15.0 mph - N/A   Clear